(255524) = 2006 DY69

Discovered at Kitt Peak on 2006-02-20 by Spacewatch.

Orbit

Orbit type: Main Belt

Note: WebGL enabled browser required.

epoch2023-09-13.0
epoch JD2460200.5
perihelion date2023-04-30.82808
perihelion JD2460065.32808
argument of perihelion (°)148.90601
ascending node (°)164.90147
inclination (°)4.79902
eccentricity0.2016564
perihelion distance (AU)1.7391979
Tisserand w.r.t. Jupiter3.7
ΔV w.r.t. Earth (km/sec)8.2
semimajor axis (AU)2.1785079
mean anomaly (°)41.43350
mean daily motion (°/day)0.30652450
aphelion distance (AU)2.618
period (years)3.22
P-vector [x]0.69270900
P-vector [y]-0.67770179
P-vector [z]-0.24672764
Q-vector [x]0.72088789
Q-vector [y]0.66095316
Q-vector [z]0.20847436
absolute magnitude17.37
phase slope0.15
uncertainty0
referenceMPEC 2024-A158
observations used462
oppositions13
arc length (days)7589
first opposition used2003
last opposition used2024
residual rms (arc-secs)0.75
perturbers coarse indicatorM-v
perturbers precise indicator003Ek
first observation date used2003-04-04.0
last observation date used2024-01-13.0
computer nameMPCLINUX
JD of orbit computation2456494.382526
perihelion JD uncertainty (days)5.6262E-05
argument of perihelion uncertainty (°)5.9756E-05
ascending node uncertainty (°)5.4405E-05
inclination uncertainty (°)7.1526E-06
eccentricity uncertainty 5.5625E-08
perihelion distance uncertainty (AU)1.3207E-07
Minimum Orbit Intersection Distances (in AU)
for orbit epoch: 2460200.5, reference: E2024-AF8
Mercury1.3155
Venus1.01635
Earth0.72706
Mars0.36763
Jupiter2.6607
Saturn6.51855
Uranus15.8781
Neptune27.592

Observations

471 total observations over interval: 2003 04 04.39818 – 2024 01 13.132482
These data are available for download (format description).

Date (UT) J2000 RA J2000 Dec Magn Location Ref
2003 04 04.39818 13 59 17.44 -06 35 26.4 20.5 V 691 – Steward Observatory, Kitt Peak-Spacewatch MPS 224914
2003 04 04.42717 13 59 15.95 -06 35 13.0 20.4 V 691 – Steward Observatory, Kitt Peak-Spacewatch MPS 224914
2003 04 04.45698 13 59 14.41 -06 34 58.5 20.8 V 691 – Steward Observatory, Kitt Peak-Spacewatch MPS 224914
2006 02 20.44210 12 20 32.87 -01 10 32.0   691 – Steward Observatory, Kitt Peak-Spacewatch MPS 166241
2006 02 20.45947 12 20 32.31 -01 10 26.1   691 – Steward Observatory, Kitt Peak-Spacewatch MPS 166241
2006 02 20.47682 12 20 31.71 -01 10 20.9   691 – Steward Observatory, Kitt Peak-Spacewatch MPS 166241
2006 02 27.39552 12 16 22.55 -00 27 22.0 20.6 V 691 – Steward Observatory, Kitt Peak-Spacewatch MPS 166241
2006 02 27.41288 12 16 21.81 -00 27 15.0 20.6 V 691 – Steward Observatory, Kitt Peak-Spacewatch MPS 166241
2006 02 27.43015 12 16 21.07 -00 27 07.8 20.5 V 691 – Steward Observatory, Kitt Peak-Spacewatch MPS 166241
2006 03 02.35307 12 14 14.70 -00 06 31.0 20.8 V 691 – Steward Observatory, Kitt Peak-Spacewatch MPS 166241
2006 03 02.37033 12 14 13.89 -00 06 23.8 20.7 V 691 – Steward Observatory, Kitt Peak-Spacewatch MPS 166241
2006 03 02.38758 12 14 13.08 -00 06 16.2 20.7 V 691 – Steward Observatory, Kitt Peak-Spacewatch MPS 166241
2006 03 03.39928 12 13 26.59 +00 01 10.1   691 – Steward Observatory, Kitt Peak-Spacewatch MPS 166241
2006 03 03.41664 12 13 25.75 +00 01 18.2   691 – Steward Observatory, Kitt Peak-Spacewatch MPS 166241
2006 03 03.43401 12 13 24.90 +00 01 25.7   691 – Steward Observatory, Kitt Peak-Spacewatch MPS 166241
2006 03 03.44041 12 13 24.56 +00 01 28.1 20.7 V G96 – Mt. Lemmon Survey MPS 166241
2006 03 03.44670 12 13 24.20 +00 01 31.6 21.5 V G96 – Mt. Lemmon Survey MPS 166241
2006 03 03.45339 12 13 23.91 +00 01 34.6 20.0 V G96 – Mt. Lemmon Survey MPS 166241
2006 03 03.45977 12 13 23.62 +00 01 36.4 20.6 V G96 – Mt. Lemmon Survey MPS 166241
2006 03 06.35897 12 11 03.67 +00 23 43.3   691 – Steward Observatory, Kitt Peak-Spacewatch MPS 166241
2006 03 06.37668 12 11 02.75 +00 23 51.4   691 – Steward Observatory, Kitt Peak-Spacewatch MPS 166241
2006 03 06.39396 12 11 01.84 +00 23 59.6   691 – Steward Observatory, Kitt Peak-Spacewatch MPS 166241
2006 03 26.27336 11 52 15.60 +03 11 20.6 20.4 V G96 – Mt. Lemmon Survey MPS 167183
2006 03 26.28006 11 52 15.20 +03 11 24.0 20.2 V G96 – Mt. Lemmon Survey MPS 167183
2006 03 26.28678 11 52 14.88 +03 11 29.4 18.9 V G96 – Mt. Lemmon Survey MPS 167183
2007 10 13.25738 03 13 46.55 +10 57 49.6   704 – Lincoln Laboratory ETS, New Mexico MPS 407069
2007 10 13.26847 03 13 46.07 +10 57 45.5   704 – Lincoln Laboratory ETS, New Mexico MPS 407069
2007 10 13.29064 03 13 45.01 +10 57 36.2   704 – Lincoln Laboratory ETS, New Mexico MPS 407069
2007 10 13.30173 03 13 44.46 +10 57 31.3   704 – Lincoln Laboratory ETS, New Mexico MPS 407069
2007 10 30.29821 02 58 03.43 +09 00 53.6 18.8 V 703 – Catalina Sky Survey MPS 224914
2007 10 30.30633 02 58 02.85 +09 00 48.4 18.6 V 703 – Catalina Sky Survey MPS 224914
2007 10 30.31446 02 58 02.35 +09 00 46.1 19.7 V 703 – Catalina Sky Survey MPS 224914
2007 10 30.32257 02 58 01.70 +09 00 44.3 20.5 V 703 – Catalina Sky Survey MPS 224914
2007 11 03.42049 02 53 38.00 +08 34 02.5   291 – LPL/Spacewatch II MPS 224914
2007 11 03.43558 02 53 36.99 +08 33 56.7   291 – LPL/Spacewatch II MPS 224914
2007 11 03.45066 02 53 35.99 +08 33 51.0   291 – LPL/Spacewatch II MPS 224914
2007 11 04.17259 02 52 49.98 +08 29 19.6 18.8 V G96 – Mt. Lemmon Survey MPS 224914
2007 11 04.17691 02 52 49.69 +08 29 17.9 18.9 V G96 – Mt. Lemmon Survey MPS 224914
2007 11 04.18245 02 52 49.33 +08 29 15.3 19.4 V G96 – Mt. Lemmon Survey MPS 224914
2007 11 04.18677 02 52 49.04 +08 29 13.9 19.3 V G96 – Mt. Lemmon Survey MPS 224914
2007 11 04.26118 02 52 44.01 +08 28 46.5   704 – Lincoln Laboratory ETS, New Mexico MPS 407069
2007 11 04.27331 02 52 43.22 +08 28 42.8   704 – Lincoln Laboratory ETS, New Mexico MPS 407069
2007 11 04.28545 02 52 42.37 +08 28 37.6   704 – Lincoln Laboratory ETS, New Mexico MPS 407069
2007 11 04.29749 02 52 41.55 +08 28 33.5   704 – Lincoln Laboratory ETS, New Mexico MPS 407069
2007 11 04.30955 02 52 40.71 +08 28 29.0   704 – Lincoln Laboratory ETS, New Mexico MPS 407069
2007 11 04.34456 02 52 38.42 +08 28 15.3 19.2 V G96 – Mt. Lemmon Survey MPS 224914
2007 11 04.34961 02 52 38.06 +08 28 13.6 19.2 V G96 – Mt. Lemmon Survey MPS 224914
2007 11 04.35478 02 52 37.70 +08 28 11.4 19.2 V G96 – Mt. Lemmon Survey MPS 224914
2007 11 04.36140 02 52 37.27 +08 28 09.0 19.1 V G96 – Mt. Lemmon Survey MPS 224914
2007 11 07.25179 02 49 31.09 +08 10 42.0 19.7   704 – Lincoln Laboratory ETS, New Mexico MPS 224914
2007 11 07.26407 02 49 30.40 +08 10 38.7 19.8   704 – Lincoln Laboratory ETS, New Mexico MPS 224914
2007 11 07.27681 02 49 29.60 +08 10 33.9 19.5 V 703 – Catalina Sky Survey MPS 272615
2007 11 07.27728 02 49 29.44 +08 10 33.5 19.7   704 – Lincoln Laboratory ETS, New Mexico MPS 224914
2007 11 07.28440 02 49 29.10 +08 10 31.0 19.4 V 703 – Catalina Sky Survey MPS 272615
2007 11 07.28958 02 49 28.70 +08 10 29.4 19.6   704 – Lincoln Laboratory ETS, New Mexico MPS 224914
2007 11 07.29205 02 49 28.66 +08 10 29.1 19.4 V 703 – Catalina Sky Survey MPS 272615
2007 11 07.29968 02 49 28.09 +08 10 26.2 19.6 V 703 – Catalina Sky Survey MPS 272615
2007 11 07.30195 02 49 27.86 +08 10 25.0 19.4   704 – Lincoln Laboratory ETS, New Mexico MPS 224914
2007 11 11.35484 02 45 12.00 +07 47 57.2 19.7 r 699 – Lowell Observatory-LONEOS MPS 226890
2007 11 11.37679 02 45 10.55 +07 47 49.3 20.2 r 699 – Lowell Observatory-LONEOS MPS 226890
2007 11 11.39874 02 45 09.19 +07 47 43.7 19.4 r 699 – Lowell Observatory-LONEOS MPS 226890
2007 11 11.42070 02 45 07.89 +07 47 36.0 19.4 r 699 – Lowell Observatory-LONEOS MPS 226890
2007 11 12.24962 02 44 17.25 +07 43 22.1 19.3   704 – Lincoln Laboratory ETS, New Mexico MPS 226890
2007 11 12.26190 02 44 16.44 +07 43 18.2 19.6   704 – Lincoln Laboratory ETS, New Mexico MPS 226890
2007 11 12.27409 02 44 15.65 +07 43 14.2 19.5   704 – Lincoln Laboratory ETS, New Mexico MPS 226890
2007 11 12.28629 02 44 14.90 +07 43 10.6 19.6   704 – Lincoln Laboratory ETS, New Mexico MPS 226890
2007 11 12.29850 02 44 14.09 +07 43 06.6 19.4   704 – Lincoln Laboratory ETS, New Mexico MPS 226890
2009 02 03.39900 10 48 25.82 +05 42 09.7 20.8 V 691 – Steward Observatory, Kitt Peak-Spacewatch MPS 272615
2009 02 03.41708 10 48 24.95 +05 42 16.5 21.0 V 691 – Steward Observatory, Kitt Peak-Spacewatch MPS 272615
2009 02 03.43517 10 48 24.13 +05 42 22.7 20.9 V 691 – Steward Observatory, Kitt Peak-Spacewatch MPS 272615
2009 03 03.16610 10 22 33.19 +09 01 58.2 20.5 V 691 – Steward Observatory, Kitt Peak-Spacewatch MPS 278668
2009 03 03.18373 10 22 32.13 +09 02 06.5 20.9 V 691 – Steward Observatory, Kitt Peak-Spacewatch MPS 278668
2009 03 03.20175 10 22 31.02 +09 02 14.8 20.4 V 691 – Steward Observatory, Kitt Peak-Spacewatch MPS 278668
2010 08 13.33944 00 00 10.74 +01 10 15.7   691 – Steward Observatory, Kitt Peak-Spacewatch MPS 343730
2010 08 13.35722 00 00 10.69 +01 10 10.9   691 – Steward Observatory, Kitt Peak-Spacewatch MPS 343730
2010 08 13.37501 00 00 10.64 +01 10 06.6   691 – Steward Observatory, Kitt Peak-Spacewatch MPS 343730
2010 09 01.36993 23 54 13.52 -01 06 19.8 18.8   704 – Lincoln Laboratory ETS, New Mexico MPS 346315
2010 09 01.38136 23 54 13.09 -01 06 26.4 19.4   704 – Lincoln Laboratory ETS, New Mexico MPS 346315
2010 09 01.39279 23 54 12.63 -01 06 32.8 19.2   704 – Lincoln Laboratory ETS, New Mexico MPS 346315
2010 09 01.40421 23 54 12.18 -01 06 38.9 19.8   704 – Lincoln Laboratory ETS, New Mexico MPS 346315
2010 09 01.41560 23 54 11.71 -01 06 45.0 19.6   704 – Lincoln Laboratory ETS, New Mexico MPS 346315
2010 09 04.32537 23 52 22.55 -01 34 37.5 18.9   704 – Lincoln Laboratory ETS, New Mexico MPS 347117
2010 09 04.33851 23 52 21.97 -01 34 45.1 18.9   704 – Lincoln Laboratory ETS, New Mexico MPS 347117
2010 09 04.35142 23 52 21.44 -01 34 52.9 19.4   704 – Lincoln Laboratory ETS, New Mexico MPS 347117
2010 09 04.36478 23 52 20.79 -01 35 00.4 18.9   704 – Lincoln Laboratory ETS, New Mexico MPS 347117
2010 09 09.93155 23 48 25.55 -02 31 02.2 18.1 V J75 – OAM Observatory, La Sagra MPS 347993
